This demonstration page uses our WeatherBlox Daily Observations layout. Learn more.

Left ArrowRight Arrow

41.55636, -103.73856

Hourly Observations for September 8, 2015

Temp ( °F °C ) Dew Point ( °F °C ) Humidity (%) Winds ( mph kmh ) Pressure ( in mb ) Visibility ( mi km ) Precip ( " mm )
12:53 am 00:53 Clear 58 14.4 46 7.8 65 65 S 5 7 29.92 1013 10 16.0934 0 0
1:53 am 01:53 Clear 58 14.4 46 7.8 65 65 ENE 6 9 29.92 1013 10 16.0934 0 0
2:53 am 02:53 Clear 52 11.1 45 7.2 77 77 N 5 7 29.94 1014 10 16.0934 0 0
3:53 am 03:53 Clear 53 11.7 41 5 64 64 NNW 13 20 29.94 1014 10 16.0934 0 0
4:53 am 04:53 Clear 52 11.1 42 5.6 69 69 NW 13 20 29.97 1015 10 16.0934 0 0
5:53 am 05:53 Clear 50 10 41 5 71 71 WNW 18 30 30.01 1016 10 16.0934 0 0
6:14 am 06:14 Mostly Cloudy 50 10 43 6 76 76 WNW 20 31 30.09 1019 10 16.0934 0 0
6:53 am 06:53 Cloudy 51 10.6 43 6.1 74 74 WNW 20 31 30.05 1018 10 16.0934 0 0
7:03 am 07:03 Cloudy 52 11 45 7 77 77 WNW 21 33 30.06 1018 10 16.0934 0 0
7:53 am 07:53 Cloudy 53 11.7 44 6.7 72 72 WNW 16 26 30.09 1019 10 16.0934 0 0
8:53 am 08:53 Cloudy 56 13.3 47 8.3 72 72 NW 16 26 30.1 1019 10 16.0934 0 0
9:23 am 09:23 Cloudy 55 12.8 46 7.8 72 72 NW 16 26 30.09 1019 10 16.0934 0 0
9:53 am 09:53 Cloudy 58 14.4 48 8.9 70 70 NW 17 28 30.11 1020 10 16.0934 0 0
10:53 am 10:53 Mostly Cloudy 65 18.3 52 11.1 63 63 NW 12 19 30.09 1019 10 16.0934 0 0
11:53 am 11:53 Mostly Cloudy 66 18.9 53 11.7 63 63 VRB 5 7 30.07 1018 10 16.0934 0 0
12:18 pm 12:18 Mostly Cloudy 66 19 54 12 64 64 NW 8 13 29.97 1015 10 16.0934 0 0
12:26 pm 12:26 Partly Cloudy 68 20 53 11.7 59 59 NW 10 17 29.94 1014 10 16.0934 0 0
12:34 pm 12:34 Mostly Cloudy 66 19 54 12 64 64 NNW 8 13 29.97 1015 10 16.0934 0 0
12:53 pm 12:53 Mostly Cloudy 70 21.1 53 11.7 55 55 VRB 5 7 30.04 1017 10 16.0934 0 0
1:06 pm 13:06 Partly Cloudy 70 21 52 11 53 53 VRB 6 9 29.94 1014 10 16.0934 0 0
1:53 pm 13:53 Mostly Sunny 72 22.2 52 11.1 50 50 VRB 6 9 30.02 1017 10 16.0934 0 0
2:53 pm 14:53 Sunny 74 23.3 49 9.4 41 41 N 10 17 29.99 1016 10 16.0934 0 0
3:53 pm 15:53 Sunny 75 23.9 43 6.1 32 32 VRB 5 7 29.96 1014 10 16.0934 0 0
4:53 pm 16:53 Sunny 75 23.9 41 5 29 29 VRB 5 7 29.95 1014 10 16.0934 0 0
5:53 pm 17:53 Sunny 76 24.4 41 5 29 29 NE 9 15 29.94 1014 10 16.0934 0 0
6:53 pm 18:53 Sunny 71 21.7 43 6.1 36 36 ENE 7 11 29.95 1014 10 16.0934 0 0
7:53 pm 19:53 Clear 64 17.8 49 9.4 58 58 NE 7 11 29.97 1015 10 16.0934 0 0
8:53 pm 20:53 Clear 60 15.6 47 8.3 62 62 ENE 6 9 29.99 1016 10 16.0934 0 0
9:53 pm 21:53 Clear 60 15.6 44 6.7 56 56 S 9 15 30 1016 10 16.0934 0 0
10:53 pm 22:53 Clear 53 11.7 46 7.8 77 77 undefined N/A 29.99 1016 10 16.0934 0 0
11:53 pm 23:53 Clear 51 10.6 44 6.7 77 77 ENE 12 19 30 1016 10 16.0934 0 0

Powered by AerisWeather